Time,TemperatureF,DewpointF,PressureIn,WindDirection,WindDirectionDegrees,WindSpeedMPH,WindSpeedGustMPH,Humidity,HourlyPrecipIn,Conditions,Clouds,dailyrainin,SoftwareType,DateUTC
2013-05-01 00:06:00,57.2,43.0,29.85,North,355,7.0,17.0,59,0.00,,,0.00,weatherlink.com 1.10,2013-05-01 05:06:00,
2013-05-01 00:21:00,56.2,42.0,29.88,NNW,330,12.0,18.0,59,0.00,,,0.00,weatherlink.com 1.10,2013-05-01 05:21:00,
2013-05-01 00:36:00,54.2,43.0,29.88,North,355,11.0,21.0,67,0.00,,,0.00,weatherlink.com 1.10,2013-05-01 05:36:00,
2013-05-01 00:51:00,53.5,44.0,29.90,North,5,7.0,22.0,70,0.00,,,0.00,weatherlink.com 1.10,2013-05-01 05:51:00,
2013-05-01 01:06:00,53.1,43.0,29.89,North,5,12.0,23.0,69,0.00,,,0.00,weatherlink.com 1.10,2013-05-01 06:06:00,
2013-05-01 01:21:00,52.9,43.0,29.88,North,10,13.0,23.0,69,0.00,,,0.00,weatherlink.com 1.10,2013-05-01 06:21:00,
2013-05-01 01:37:00,50.9,43.0,29.90,NNE,31,9.0,22.0,74,0.00,,,0.00,weatherlink.com 1.10,2013-05-01 06:37:00,
2013-05-01 01:52:00,49.8,43.0,29.91,North,360,12.0,29.0,76,0.00,,,0.00,weatherlink.com 1.10,2013-05-01 06:52:00,
2013-05-01 02:07:00,49.1,43.0,29.92,NNE,14,15.0,23.0,79,0.00,,,0.00,weatherlink.com 1.10,2013-05-01 07:07:00,
2013-05-01 02:22:00,49.2,43.0,29.93,NNW,343,17.0,24.0,79,0.00,,,0.00,weatherlink.com 1.10,2013-05-01 07:22:00,
2013-05-01 02:37:00,49.6,43.0,29.95,North,5,5.0,22.0,77,0.00,,,0.00,weatherlink.com 1.10,2013-05-01 07:37:00,
2013-05-01 02:52:00,49.2,42.0,29.94,NNE,17,8.0,29.0,77,0.00,,,0.00,weatherlink.com 1.10,2013-05-01 07:52:00,
2013-05-01 03:07:00,48.7,42.0,29.94,NE,40,5.0,29.0,78,0.00,,,0.00,weatherlink.com 1.10,2013-05-01 08:07:00,
2013-05-01 03:22:00,48.4,42.0,29.94,NE,36,13.0,24.0,78,0.00,,,0.00,weatherlink.com 1.10,2013-05-01 08:22:00,
2013-05-01 03:37:00,48.3,42.0,29.97,NNE,13,9.0,21.0,79,0.00,,,0.00,weatherlink.com 1.10,2013-05-01 08:37:00,
2013-05-01 03:52:00,47.9,42.0,29.98,NNE,24,18.0,21.0,80,0.00,,,0.00,weatherlink.com 1.10,2013-05-01 08:52:00,
2013-05-01 04:07:00,47.7,42.0,29.99,North,360,16.0,24.0,79,0.00,,,0.00,weatherlink.com 1.10,2013-05-01 09:07:00,
2013-05-01 04:22:00,47.5,41.0,29.98,NNE,13,12.0,24.0,78,0.00,,,0.00,weatherlink.com 1.10,2013-05-01 09:22:00,
2013-05-01 04:37:00,47.1,41.0,30.00,NNE,32,10.0,23.0,78,0.00,,,0.00,weatherlink.com 1.10,2013-05-01 09:37:00,
2013-05-01 04:52:00,46.7,41.0,29.99,NE,43,7.0,22.0,79,0.00,,,0.00,weatherlink.com 1.10,2013-05-01 09:52:00,
2013-05-01 05:07:00,46.7,40.0,30.01,NE,53,12.0,19.0,78,0.00,,,0.00,weatherlink.com 1.10,2013-05-01 10:07:00,
2013-05-01 05:22:00,46.5,40.0,30.01,NE,40,4.0,24.0,78,0.00,,,0.00,weatherlink.com 1.10,2013-05-01 10:22:00,
2013-05-01 05:37:00,46.2,40.0,30.02,NE,51,10.0,19.0,79,0.00,,,0.00,weatherlink.com 1.10,2013-05-01 10:37:00,
2013-05-01 05:52:00,45.9,40.0,30.03,NNE,19,13.0,17.0,80,0.00,,,0.00,weatherlink.com 1.10,2013-05-01 10:52:00,
2013-05-01 06:07:00,45.7,40.0,30.05,NNW,333,7.0,18.0,81,0.00,,,0.00,weatherlink.com 1.10,2013-05-01 11:07:00,
2013-05-01 06:22:00,45.6,40.0,30.05,NE,45,9.0,19.0,81,0.00,,,0.00,weatherlink.com 1.10,2013-05-01 11:22:00,
2013-05-01 06:37:00,45.5,40.0,30.05,NNE,24,6.0,19.0,82,0.00,,,0.00,weatherlink.com 1.10,2013-05-01 11:37:00,
2013-05-01 06:52:00,45.3,40.0,30.07,NNE,26,9.0,19.0,83,0.00,,,0.00,weatherlink.com 1.10,2013-05-01 11:52:00,
2013-05-01 07:08:00,45.1,41.0,30.09,NNW,333,8.0,19.0,84,0.00,,,0.00,weatherlink.com 1.10,2013-05-01 12:08:00,
2013-05-01 07:23:00,45.0,41.0,30.10,North,360,9.0,22.0,84,0.00,,,0.00,weatherlink.com 1.10,2013-05-01 12:23:00,
2013-05-01 07:38:00,44.9,40.0,30.11,NNE,27,10.0,21.0,84,0.00,,,0.00,weatherlink.com 1.10,2013-05-01 12:38:00,
2013-05-01 07:53:00,44.6,40.0,30.11,NNE,19,7.0,22.0,84,0.00,,,0.00,weatherlink.com 1.10,2013-05-01 12:53:00,
2013-05-01 08:08:00,43.6,40.0,30.11,NNW,344,15.0,18.0,87,0.00,,,0.00,weatherlink.com 1.10,2013-05-01 13:08:00,
2013-05-01 08:23:00,43.2,40.0,30.12,North,355,7.0,17.0,89,0.00,,,0.00,weatherlink.com 1.10,2013-05-01 13:23:00,
2013-05-01 08:38:00,42.9,40.0,30.13,NNE,15,19.0,21.0,90,0.00,,,0.00,weatherlink.com 1.10,2013-05-01 13:38:00,
2013-05-01 08:53:00,42.9,40.0,30.12,NE,45,6.0,27.0,88,0.00,,,0.00,weatherlink.com 1.10,2013-05-01 13:53:00,
2013-05-01 09:08:00,42.0,38.0,30.14,North,360,14.0,26.0,87,0.00,,,0.00,weatherlink.com 1.10,2013-05-01 14:08:00,
2013-05-01 09:23:00,40.6,37.0,30.15,NNW,328,18.0,22.0,88,0.00,,,0.00,weatherlink.com 1.10,2013-05-01 14:23:00,
2013-05-01 09:38:00,39.7,37.0,30.16,North,5,9.0,26.0,89,0.00,,,0.00,weatherlink.com 1.10,2013-05-01 14:38:00,
2013-05-01 09:53:00,39.2,37.0,30.16,NNE,24,7.0,25.0,90,0.00,,,0.00,weatherlink.com 1.10,2013-05-01 14:53:00,
2013-05-01 10:08:00,39.0,37.0,30.19,NNW,344,11.0,19.0,91,0.00,,,0.00,weatherlink.com 1.10,2013-05-01 15:08:00,
2013-05-01 10:23:00,38.8,36.0,30.19,North,355,10.0,18.0,91,0.00,,,0.00,weatherlink.com 1.10,2013-05-01 15:23:00,
2013-05-01 10:38:00,38.9,37.0,30.17,NNE,33,8.0,24.0,92,0.00,,,0.00,weatherlink.com 1.10,2013-05-01 15:38:00,
2013-05-01 10:53:00,39.5,37.0,30.18,NNW,347,8.0,21.0,89,0.00,,,0.00,weatherlink.com 1.10,2013-05-01 15:53:00,
2013-05-01 11:08:00,39.7,36.0,30.20,North,355,9.0,21.0,86,0.00,,,0.00,weatherlink.com 1.10,2013-05-01 16:08:00,
2013-05-01 11:23:00,39.5,36.0,30.20,NNE,33,11.0,23.0,86,0.00,,,0.00,weatherlink.com 1.10,2013-05-01 16:23:00,
2013-05-01 11:38:00,39.4,36.0,30.19,NE,45,4.0,22.0,86,0.00,,,0.00,weatherlink.com 1.10,2013-05-01 16:38:00,
2013-05-01 11:53:00,39.5,36.0,30.20,NNW,345,6.0,20.0,86,0.00,,,0.00,weatherlink.com 1.10,2013-05-01 16:53:00,
2013-05-01 12:08:00,39.4,36.0,30.22,NW,313,15.0,18.0,87,0.00,,,0.00,weatherlink.com 1.10,2013-05-01 17:08:00,
2013-05-01 12:23:00,38.1,36.0,30.22,NW,307,5.0,18.0,90,0.00,,,0.00,weatherlink.com 1.10,2013-05-01 17:23:00,
2013-05-01 12:38:00,36.8,35.0,30.23,North,360,4.0,16.0,92,0.00,,,0.00,weatherlink.com 1.10,2013-05-01 17:38:00,
2013-05-01 12:54:00,36.3,35.0,30.23,NW,317,9.0,16.0,93,0.00,,,0.00,weatherlink.com 1.10,2013-05-01 17:54:00,
2013-05-01 13:09:00,36.1,35.0,30.23,NNW,330,11.0,17.0,94,0.00,,,0.00,weatherlink.com 1.10,2013-05-01 18:09:00,
2013-05-01 13:24:00,35.5,34.0,30.23,North,351,10.0,18.0,94,0.00,,,0.00,weatherlink.com 1.10,2013-05-01 18:24:00,
2013-05-01 13:39:00,35.2,34.0,30.25,North,355,8.0,20.0,94,0.02,,,0.02,weatherlink.com 1.10,2013-05-01 18:39:00,
2013-05-01 13:54:00,35.1,34.0,30.25,North,5,5.0,15.0,94,0.04,,,0.04,weatherlink.com 1.10,2013-05-01 18:54:00,
2013-05-01 14:09:00,34.5,33.0,30.26,NNE,26,6.0,16.0,94,0.05,,,0.05,weatherlink.com 1.10,2013-05-01 19:09:00,
2013-05-01 14:24:00,34.2,33.0,30.27,NW,323,8.0,18.0,95,0.06,,,0.06,weatherlink.com 1.10,2013-05-01 19:24:00,
2013-05-01 14:39:00,34.0,33.0,30.28,NW,325,8.0,19.0,95,0.05,,,0.07,weatherlink.com 1.10,2013-05-01 19:39:00,
2013-05-01 14:54:00,33.7,33.0,30.27,North,355,9.0,22.0,95,0.05,,,0.09,weatherlink.com 1.10,2013-05-01 19:54:00,
2013-05-01 15:09:00,33.4,32.0,30.29,NNE,22,6.0,16.0,95,0.07,,,0.12,weatherlink.com 1.10,2013-05-01 20:09:00,
2013-05-01 15:24:00,33.1,32.0,30.30,NNW,344,7.0,20.0,95,0.07,,,0.13,weatherlink.com 1.10,2013-05-01 20:24:00,
2013-05-01 15:39:00,33.0,32.0,30.29,North,5,18.0,19.0,95,0.07,,,0.14,weatherlink.com 1.10,2013-05-01 20:39:00,
2013-05-01 15:54:00,32.8,32.0,30.30,NNW,342,12.0,23.0,95,0.05,,,0.14,weatherlink.com 1.10,2013-05-01 20:54:00,
2013-05-01 16:09:00,32.7,32.0,30.32,NNW,334,9.0,20.0,95,0.03,,,0.15,weatherlink.com 1.10,2013-05-01 21:09:00,
2013-05-01 16:24:00,32.6,31.0,30.30,NNE,15,10.0,18.0,95,0.04,,,0.17,weatherlink.com 1.10,2013-05-01 21:24:00,
2013-05-01 16:39:00,32.5,31.0,30.30,North,360,10.0,19.0,95,0.05,,,0.19,weatherlink.com 1.10,2013-05-01 21:39:00,
2013-05-01 16:54:00,32.5,31.0,30.32,North,355,4.0,21.0,95,0.06,,,0.20,weatherlink.com 1.10,2013-05-01 21:54:00,
2013-05-01 17:09:00,32.3,31.0,30.31,NNE,23,18.0,22.0,95,0.06,,,0.21,weatherlink.com 1.10,2013-05-01 22:09:00,
2013-05-01 17:24:00,32.2,31.0,30.34,NNW,330,10.0,16.0,95,0.06,,,0.23,weatherlink.com 1.10,2013-05-01 22:24:00,
2013-05-01 17:39:00,32.1,31.0,30.34,North,355,7.0,21.0,95,0.05,,,0.24,weatherlink.com 1.10,2013-05-01 22:39:00,
2013-05-01 17:54:00,31.9,31.0,30.34,North,355,13.0,21.0,96,0.04,,,0.24,weatherlink.com 1.10,2013-05-01 22:54:00,
2013-05-01 18:09:00,31.8,31.0,30.34,North,9,5.0,21.0,95,0.03,,,0.24,weatherlink.com 1.10,2013-05-01 23:09:00,
2013-05-01 18:24:00,31.8,31.0,30.36,NE,42,11.0,16.0,95,0.01,,,0.24,weatherlink.com 1.10,2013-05-01 23:24:00,
2013-05-01 18:39:00,31.7,31.0,30.34,NNE,15,9.0,20.0,96,0.00,,,0.24,weatherlink.com 1.10,2013-05-01 23:39:00,
2013-05-01 18:55:00,31.7,31.0,30.35,NW,311,9.0,18.0,96,0.00,,,0.24,weatherlink.com 1.10,2013-05-01 23:55:00,
2013-05-01 19:09:00,31.7,31.0,30.35,NW,318,9.0,18.0,96,0.00,,,0.24,weatherlink.com 1.10,2013-05-02 00:09:00,
2013-05-01 19:25:00,31.8,31.0,30.34,North,351,12.0,21.0,96,0.00,,,0.24,weatherlink.com 1.10,2013-05-02 00:25:00,
2013-05-01 19:40:00,31.9,31.0,30.36,NNW,347,8.0,14.0,96,0.00,,,0.24,weatherlink.com 1.10,2013-05-02 00:40:00,
2013-05-01 19:55:00,32.0,31.0,30.36,North,11,8.0,17.0,96,0.00,,,0.24,weatherlink.com 1.10,2013-05-02 00:55:00,
2013-05-01 20:10:00,32.0,31.0,30.38,NW,324,13.0,23.0,96,0.00,,,0.24,weatherlink.com 1.10,2013-05-02 01:10:00,
2013-05-01 20:25:00,32.0,31.0,30.37,NNW,346,9.0,22.0,96,0.00,,,0.24,weatherlink.com 1.10,2013-05-02 01:25:00,
2013-05-01 20:40:00,32.0,31.0,30.37,NNW,346,13.0,20.0,96,0.00,,,0.24,weatherlink.com 1.10,2013-05-02 01:40:00,
2013-05-01 20:55:00,32.0,31.0,30.39,NNW,344,16.0,19.0,96,0.00,,,0.24,weatherlink.com 1.10,2013-05-02 01:55:00,
2013-05-01 21:10:00,32.0,31.0,30.39,NNE,15,12.0,22.0,96,0.00,,,0.24,weatherlink.com 1.10,2013-05-02 02:10:00,
2013-05-01 21:25:00,31.9,31.0,30.40,NNE,18,6.0,21.0,96,0.00,,,0.24,weatherlink.com 1.10,2013-05-02 02:25:00,
2013-05-01 21:40:00,31.9,31.0,30.39,North,355,11.0,21.0,97,0.00,,,0.24,weatherlink.com 1.10,2013-05-02 02:40:00,
2013-05-01 21:55:00,31.9,31.0,30.39,NNE,25,6.0,18.0,97,0.00,,,0.24,weatherlink.com 1.10,2013-05-02 02:55:00,
2013-05-01 22:10:00,31.9,31.0,30.41,NE,40,3.0,17.0,97,0.00,,,0.24,weatherlink.com 1.10,2013-05-02 03:10:00,
2013-05-01 22:25:00,31.9,31.0,30.38,North,5,13.0,16.0,97,0.00,,,0.24,weatherlink.com 1.10,2013-05-02 03:25:00,
2013-05-01 22:40:00,31.9,31.0,30.41,NNE,12,2.0,13.0,97,0.00,,,0.24,weatherlink.com 1.10,2013-05-02 03:40:00,
2013-05-01 22:56:00,31.8,31.0,30.41,NNE,19,7.0,12.0,97,0.00,,,0.24,weatherlink.com 1.10,2013-05-02 03:56:00,
2013-05-01 23:15:00,31.8,31.0,30.40,North,5,10.0,13.0,97,0.00,,,0.24,weatherlink.com 1.10,2013-05-02 04:15:00,
2013-05-01 23:27:00,31.8,31.0,30.41,NE,47,8.0,13.0,97,0.00,,,0.24,weatherlink.com 1.10,2013-05-02 04:27:00,
2013-05-01 23:42:00,31.9,31.0,30.42,NNE,15,4.0,13.0,97,0.00,,,0.24,weatherlink.com 1.10,2013-05-02 04:42:00,